Theta_e
352 347 343 344 336 331 330 334 351 343 341 339 338 340 342 333 331 338 333 338 337 325
346 346 340 344 342 332 341 330 336 339 340 338 339 340 342 331 337 336 337 334 338 331
336 336 337 338 337 339 339 336 334 335 340 339 338 339 341 333 335 336 331 330 333 335
331 330 331 332 332 333 335 335 334 334 333 334 338 340 340 339 336 334 335 333 332 332
326 327 328 329 330 331 331 332 331 331 330 329 331 337 337 334 333 333 331 331 332 330
324 325 325 325 326 326 326 325 325 325 325 326 328 331 333 333 333 332 332 332 331 330
321 322 322 322 322 322 322 322 322 323 322 322 323 324 326 326 329 331 331 331 331 331
319 320 319 319 319 319 319 319 319 318 318 320 321 318 323 325 325 326 326 328 328 329
316 316 316 317 317 318 316 316 316 316 315 318 316 307 305 309 317 318 318 319 321 324
313 312 313 313 313 315 317 319 315 315 314 316 318 306 303 304 314 316 317 318 318 318
310 310 310 310 311 315 315 315 314 314 314 315 315 302 298 300 308 310 311 312 313 314
308 307 307 307 310 312 312 310 309 308 309 308 308 300 296 298 303 304 306 308 310 309
307 307 307 308 306 305 305 303 302 300 301 299 298 297 296 297 298 298 299 301 303 303
307 305 303 302 300 298 295 294 294 294 295 296 297 298 295 295 297 297 297 299 301 305
Wind_Speed
8 6 7 9 9 8 7 8 9 9 8 9 9 9 7 7 8 8 8 9 8 8
7 10 9 10 3 5 4 4 7 10 10 10 10 9 9 9 9 9 8 9 9 9
5 2 1 1 4 6 6 6 7 7 10 11 11 11 10 11 11 11 10 10 11 10
2 3 3 4 6 7 8 9 10 11 12 12 12 12 12 12 13 14 13 14 14 14
3 4 3 5 6 7 9 10 11 13 14 15 16 14 15 16 16 16 17 17 17 17
5 5 6 6 7 8 9 10 11 12 14 16 16 15 16 16 18 19 20 19 19 18
7 8 8 9 10 11 11 12 13 14 16 16 17 17 17 18 17 18 17 19 20 20
9 10 11 12 12 13 14 14 15 16 17 17 15 14 17 16 17 17 18 19 19 19
12 13 13 13 14 14 15 15 16 17 18 17 14 15 6 7 13 16 17 17 17 17
15 15 16 16 16 14 14 13 15 16 18 18 17 13 11 6 13 15 16 17 16 17
16 17 17 17 16 14 14 14 15 16 17 17 14 9 3 3 12 15 15 15 16 17
16 17 17 18 17 15 15 15 15 15 15 15 13 9 8 12 12 14 16 17 18 17
16 16 17 16 16 14 13 14 11 14 14 16 16 17 17 17 11 13 11 14 16 23
15 15 14 13 13 14 13 13 14 14 14 15 15 17 19 17 11 10 11 11 12 13
Wind_Direction
207 199 210 203 201 199 201 192 152 186 211 218 215 212 223 231 236 243 234 238 249 274
172 211 218 179 241 215 252 254 189 191 211 224 226 228 223 233 243 236 246 245 237 246
174 237 329 317 253 286 305 272 277 238 215 226 236 235 232 241 237 236 242 247 246 242
280 287 276 274 274 278 278 271 265 260 260 249 235 239 242 246 258 265 241 239 251 255
358 338 331 312 308 304 290 283 276 273 268 266 262 253 235 242 248 243 246 250 247 246
336 321 316 308 297 290 284 279 277 277 273 270 267 264 262 259 252 245 250 253 256 257
317 309 299 293 288 283 284 283 279 275 273 271 270 269 268 267 266 265 262 254 251 252
299 295 293 291 291 289 284 280 278 276 273 271 268 264 262 263 264 266 266 266 265 260
300 295 291 287 284 279 277 278 278 277 277 276 274 282 300 290 287 284 281 280 281 284
298 292 288 286 286 285 285 285 282 281 280 278 278 278 281 304 287 281 277 277 277 273
296 295 296 295 293 294 291 286 283 281 280 284 287 337 67 335 300 284 280 277 275 274
301 302 301 297 296 294 295 304 302 300 297 291 289 324 8 340 307 288 288 279 275 278
304 300 296 307 315 308 303 296 301 302 301 303 297 289 292 292 289 275 269 269 270 258
308 321 315 316 313 309 297 289 285 281 277 273 267 270 264 258 255 259 266 269 272 273